| time (UTC) | temp F | wind direction | speed MPH | gust MPH | rain 1hr in | rain 24hr in | rain mn in | humidity % | barometer mb |
| 20260510182137 | 79 | 306 | 3.0 | 5.0 | 0.00 | 0.00 | 0.00 | 90 | 1015.5 |
| 20260510181637 | 80 | 306 | 3.0 | 5.0 | 0.00 | 0.00 | 0.00 | 89 | 1015.5 |
| 20260510181504 | 80 | 306 | 3.0 | 5.0 | 0.00 | 0.00 | 0.00 | 89 | 1015.5 |
| 20260510181137 | 81 | 306 | 3.0 | 5.0 | 0.00 | 0.00 | 0.00 | 89 | 1015.2 |
| 20260510181004 | 81 | 306 | 3.0 | 5.0 | 0.00 | 0.00 | 0.00 | 89 | 1015.1 |
| 20260510180637 | 81 | 306 | 3.0 | 5.0 | 0.00 | 0.00 | 0.00 | 89 | 1014.9 |
| 20260510180137 | 81 | 306 | 3.0 | 5.0 | 0.00 | 0.00 | 0.00 | 88 | 1014.7 |
| 20260510180004 | 81 | 306 | 3.0 | 5.0 | 0.00 | 0.00 | 0.00 | 87 | 1014.8 |
| 20260510175637 | 81 | 306 | 3.0 | 5.0 | 0.00 | 0.00 | 0.00 | 86 | 1015.7 |
| 20260510175504 | 81 | 306 | 3.0 | 5.0 | 0.00 | 0.00 | 0.00 | 86 | 1015.8 |
| 20260510175137 | 81 | 306 | 3.0 | 5.0 | 0.00 | 0.00 | 0.00 | 85 | 1015.8 |
| 20260510175004 | 81 | 306 | 3.0 | 5.0 | 0.00 | 0.00 | 0.00 | 86 | 1015.8 |
| 20260510174637 | 81 | 306 | 3.0 | 5.0 | 0.00 | 0.00 | 0.00 | 84 | 1015.8 |
| 20260510174503 | 81 | 306 | 3.0 | 5.0 | 0.00 | 0.00 | 0.00 | 84 | 1015.8 |
| 20260510174137 | 82 | 306 | 3.0 | 5.0 | 0.00 | 0.00 | 0.00 | 84 | 1015.9 |
| 20260510173637 | 82 | 306 | 3.0 | 5.0 | 0.00 | 0.00 | 0.00 | 82 | 1015.9 |
| 20260510173137 | 83 | 306 | 3.0 | 5.0 | 0.00 | 0.00 | 0.00 | 80 | 1016.0 |
| 20260510173004 | 83 | 306 | 3.0 | 5.0 | 0.00 | 0.00 | 0.00 | 79 | 1016.0 |
| 20260510172607 | 84 | 306 | 3.0 | 5.0 | 0.00 | 0.00 | 0.00 | 78 | 1016.0 |
| 20260510172107 | 85 | 306 | 3.0 | 5.0 | 0.00 | 0.00 | 0.00 | 75 | 1015.8 |
| 20260510172005 | 85 | 306 | 3.0 | 5.0 | 0.00 | 0.00 | 0.00 | 74 | 1015.8 |
| 20260510171607 | 86 | 306 | 3.0 | 5.0 | 0.00 | 0.00 | 0.00 | 69 | 1015.8 |
| 20260510171504 | 87 | 306 | 3.0 | 5.0 | 0.00 | 0.00 | 0.00 | 67 | 1015.7 |
| 20260510171107 | 88 | 306 | 3.0 | 5.0 | 0.00 | 0.00 | 0.00 | 59 | 1015.6 |
| 20260510171005 | 88 | 306 | 3.0 | 5.0 | 0.00 | 0.00 | 0.00 | 59 | 1015.5 |
| 20260510170607 | 88 | 306 | 3.0 | 5.0 | 0.00 | 0.00 | 0.00 | 59 | 1015.5 |
| 20260510170504 | 89 | 306 | 3.0 | 5.0 | 0.00 | 0.00 | 0.00 | 59 | 1015.5 |
| 20260510170107 | 89 | 306 | 3.0 | 5.0 | 0.00 | 0.00 | 0.00 | 59 | 1015.4 |
| 20260510170004 | 89 | 306 | 3.0 | 5.0 | 0.00 | 0.00 | 0.00 | 58 | 1015.4 |
| 20260510165607 | 89 | 306 | 3.0 | 5.0 | 0.00 | 0.00 | 0.00 | 60 | 1015.1 |
| 20260510165504 | 89 | 306 | 3.0 | 5.0 | 0.00 | 0.00 | 0.00 | 61 | 1015.1 |
| 20260510165107 | 89 | 306 | 3.0 | 5.0 | 0.00 | 0.00 | 0.00 | 60 | 1015.3 |
| 20260510165004 | 89 | 306 | 3.0 | 5.0 | 0.00 | 0.00 | 0.00 | 61 | 1015.3 |
| 20260510164607 | 88 | 306 | 3.0 | 5.0 | 0.00 | 0.00 | 0.00 | 62 | 1015.2 |
| 20260510164107 | 88 | 306 | 3.0 | 5.0 | 0.00 | 0.00 | 0.00 | 62 | 1015.6 |
| 20260510164004 | 88 | 306 | 3.0 | 5.0 | 0.00 | 0.00 | 0.00 | 61 | 1015.6 |
| 20260510163607 | 89 | 306 | 3.0 | 5.0 | 0.00 | 0.00 | 0.00 | 62 | 1015.6 |
| 20260510163504 | 89 | 306 | 3.0 | 5.0 | 0.00 | 0.00 | 0.00 | 61 | 1015.6 |
| 20260510163107 | 88 | 306 | 3.0 | 5.0 | 0.00 | 0.00 | 0.00 | 61 | 1015.6 |
| 20260510162607 | 88 | 306 | 3.0 | 5.0 | 0.00 | 0.00 | 0.00 | 61 | 1015.6 |
| 20260510162504 | 88 | 306 | 3.0 | 5.0 | 0.00 | 0.00 | 0.00 | 61 | 1015.7 |
| 20260510162107 | 88 | 306 | 3.0 | 5.0 | 0.00 | 0.00 | 0.00 | 61 | 1015.5 |
| 20260510162004 | 87 | 306 | 3.0 | 5.0 | 0.00 | 0.00 | 0.00 | 62 | 1015.5 |
| 20260510161607 | 87 | 306 | 3.0 | 5.0 | 0.00 | 0.00 | 0.00 | 65 | 1015.6 |
| 20260510161504 | 86 | 306 | 3.0 | 5.0 | 0.00 | 0.00 | 0.00 | 65 | 1015.7 |
| 20260510161107 | 86 | 306 | 3.0 | 5.0 | 0.00 | 0.00 | 0.00 | 67 | 1015.8 |
| 20260510161006 | 86 | 306 | 3.0 | 5.0 | 0.00 | 0.00 | 0.00 | 67 | 1015.8 |
| 20260510160607 | 86 | 306 | 3.0 | 5.0 | 0.00 | 0.00 | 0.00 | 67 | 1015.8 |
| 20260510160504 | 86 | 306 | 3.0 | 5.0 | 0.00 | 0.00 | 0.00 | 67 | 1015.9 |
| 20260510160107 | 86 | 306 | 3.0 | 5.0 | 0.00 | 0.00 | 0.00 | 69 | 1016.0 |
| 20260510160004 | 86 | 306 | 3.0 | 5.0 | 0.00 | 0.00 | 0.00 | 69 | 1016.0 |
| 20260510155607 | 86 | 306 | 3.0 | 5.0 | 0.00 | 0.00 | 0.00 | 68 | 1016.0 |
| 20260510155107 | 86 | 306 | 3.0 | 5.0 | 0.00 | 0.00 | 0.00 | 69 | 1015.9 |
| 20260510155004 | 86 | 306 | 3.0 | 5.0 | 0.00 | 0.00 | 0.00 | 69 | 1016.0 |
| 20260510154607 | 86 | 306 | 3.0 | 5.0 | 0.00 | 0.00 | 0.00 | 69 | 1015.9 |
| 20260510154504 | 86 | 306 | 3.0 | 5.0 | 0.00 | 0.00 | 0.00 | 68 | 1016.0 |
| 20260510154107 | 86 | 306 | 3.0 | 5.0 | 0.00 | 0.00 | 0.00 | 68 | 1016.0 |
| 20260510153607 | 86 | 306 | 3.0 | 5.0 | 0.00 | 0.00 | 0.00 | 69 | 1015.9 |
| 20260510153107 | 86 | 306 | 3.0 | 5.0 | 0.00 | 0.00 | 0.00 | 69 | 1015.8 |
| 20260510153005 | 86 | 306 | 3.0 | 5.0 | 0.00 | 0.00 | 0.00 | 70 | 1015.9 |
| 20260510152607 | 86 | 306 | 3.0 | 5.0 | 0.00 | 0.00 | 0.00 | 70 | 1015.9 |
| 20260510152107 | 86 | 306 | 3.0 | 5.0 | 0.00 | 0.00 | 0.00 | 69 | 1015.8 |
| 20260510152004 | 86 | 306 | 3.0 | 5.0 | 0.00 | 0.00 | 0.00 | 69 | 1015.8 |
| 20260510151607 | 86 | 306 | 3.0 | 5.0 | 0.00 | 0.00 | 0.00 | 69 | 1015.7 |
| 20260510151504 | 86 | 306 | 3.0 | 5.0 | 0.00 | 0.00 | 0.00 | 69 | 1015.8 |
| 20260510151107 | 86 | 306 | 3.0 | 5.0 | 0.00 | 0.00 | 0.00 | 69 | 1015.8 |
| 20260510151004 | 86 | 306 | 3.0 | 5.0 | 0.00 | 0.00 | 0.00 | 68 | 1015.8 |
| 20260510150607 | 86 | 306 | 3.0 | 5.0 | 0.00 | 0.00 | 0.00 | 68 | 1015.7 |
| 20260510150505 | 86 | 306 | 3.0 | 5.0 | 0.00 | 0.00 | 0.00 | 68 | 1015.7 |
| 20260510150107 | 86 | 306 | 3.0 | 5.0 | 0.00 | 0.00 | 0.00 | 68 | 1015.8 |
| 20260510145607 | 86 | 306 | 3.0 | 5.0 | 0.00 | 0.00 | 0.00 | 67 | 1015.6 |
| 20260510145504 | 86 | 306 | 3.0 | 5.0 | 0.00 | 0.00 | 0.00 | 67 | 1015.6 |
| 20260510145107 | 86 | 306 | 3.0 | 5.0 | 0.00 | 0.00 | 0.00 | 67 | 1015.6 |
| 20260510145004 | 87 | 306 | 3.0 | 5.0 | 0.00 | 0.00 | 0.00 | 67 | 1015.6 |
| 20260510144607 | 86 | 306 | 3.0 | 5.0 | 0.00 | 0.00 | 0.00 | 69 | 1015.5 |
| 20260510144504 | 86 | 306 | 3.0 | 5.0 | 0.00 | 0.00 | 0.00 | 68 | 1015.6 |
| 20260510144107 | 86 | 306 | 3.0 | 5.0 | 0.00 | 0.00 | 0.00 | 69 | 1015.5 |
| 20260510144004 | 85 | 306 | 3.0 | 5.0 | 0.00 | 0.00 | 0.00 | 69 | 1015.5 |
| 20260510143607 | 85 | 306 | 3.0 | 5.0 | 0.00 | 0.00 | 0.00 | 69 | 1015.6 |
| 20260510143504 | 85 | 306 | 3.0 | 5.0 | 0.00 | 0.00 | 0.00 | 69 | 1015.6 |
| 20260510143107 | 85 | 306 | 3.0 | 5.0 | 0.00 | 0.00 | 0.00 | 71 | 1015.5 |
| 20260510143006 | 85 | 306 | 3.0 | 5.0 | 0.00 | 0.00 | 0.00 | 71 | 1015.5 |
| 20260510142607 | 85 | 306 | 3.0 | 5.0 | 0.00 | 0.00 | 0.00 | 72 | 1015.5 |
| 20260510142504 | 85 | 306 | 3.0 | 5.0 | 0.00 | 0.00 | 0.00 | 72 | 1015.4 |
| 20260510142107 | 85 | 306 | 3.0 | 5.0 | 0.00 | 0.00 | 0.00 | 75 | 1015.4 |
| 20260510142004 | 85 | 306 | 3.0 | 5.0 | 0.00 | 0.00 | 0.00 | 75 | 1015.4 |
| 20260510141607 | 85 | 306 | 3.0 | 5.0 | 0.00 | 0.00 | 0.00 | 77 | 1015.4 |
| 20260510141504 | 85 | 306 | 3.0 | 5.0 | 0.00 | 0.00 | 0.00 | 78 | 1015.3 |
| 20260510141107 | 84 | 306 | 3.0 | 5.0 | 0.00 | 0.00 | 0.00 | 81 | 1015.1 |
| 20260510141004 | 84 | 306 | 3.0 | 5.0 | 0.00 | 0.00 | 0.00 | 81 | 1015.1 |
| 20260510140607 | 83 | 306 | 3.0 | 5.0 | 0.00 | 0.00 | 0.00 | 83 | 1015.1 |
| 20260510140504 | 83 | 306 | 3.0 | 5.0 | 0.00 | 0.00 | 0.00 | 84 | 1015.1 |
| 20260510140107 | 83 | 306 | 3.0 | 5.0 | 0.00 | 0.00 | 0.00 | 86 | 1015.0 |
| 20260510140003 | 82 | 306 | 3.0 | 5.0 | 0.00 | 0.00 | 0.00 | 87 | 1015.0 |
| 20260510135607 | 82 | 306 | 3.0 | 5.0 | 0.00 | 0.00 | 0.00 | 88 | 1015.0 |
| 20260510135504 | 82 | 306 | 3.0 | 5.0 | 0.00 | 0.00 | 0.00 | 89 | 1015.0 |
| 20260510135107 | 81 | 306 | 3.0 | 5.0 | 0.00 | 0.00 | 0.00 | 91 | 1014.7 |
| 20260510135004 | 81 | 306 | 3.0 | 5.0 | 0.00 | 0.00 | 0.00 | 92 | 1014.7 |
| 20260510134607 | 80 | 306 | 3.0 | 5.0 | 0.00 | 0.00 | 0.00 | 92 | 1014.9 |
| 20260510134505 | 80 | 306 | 3.0 | 5.0 | 0.00 | 0.00 | 0.00 | 93 | 1015.0 |
| 20260510134107 | 80 | 306 | 3.0 | 5.0 | 0.00 | 0.00 | 0.00 | 93 | 1015.1 |
| 20260510134004 | 80 | 306 | 3.0 | 5.0 | 0.00 | 0.00 | 0.00 | 94 | 1015.1 |
| 20260510133607 | 79 | 306 | 3.0 | 5.0 | 0.00 | 0.00 | 0.00 | 94 | 1015.0 |
| 20260510133504 | 79 | 306 | 3.0 | 5.0 | 0.00 | 0.00 | 0.00 | 94 | 1015.1 |
| 20260510133107 | 79 | 306 | 3.0 | 5.0 | 0.00 | 0.00 | 0.00 | 95 | 1015.1 |
| 20260510132607 | 79 | 306 | 3.0 | 5.0 | 0.00 | 0.00 | 0.00 | 95 | 1015.1 |
| 20260510132503 | 79 | 306 | 3.0 | 5.0 | 0.00 | 0.00 | 0.00 | 95 | 1015.1 |
| 20260510132107 | 78 | 306 | 3.0 | 5.0 | 0.00 | 0.00 | 0.00 | 96 | 1015.1 |
| 20260510132004 | 78 | 306 | 3.0 | 5.0 | 0.00 | 0.00 | 0.00 | 96 | 1015.1 |
| 20260510131607 | 78 | 306 | 3.0 | 5.0 | 0.00 | 0.00 | 0.00 | 96 | 1015.1 |
| 20260510131504 | 78 | 306 | 3.0 | 5.0 | 0.00 | 0.00 | 0.00 | 96 | 1015.1 |
| 20260510131107 | 78 | 306 | 3.0 | 5.0 | 0.00 | 0.00 | 0.00 | 97 | 1015.0 |
| 20260510131004 | 78 | 306 | 3.0 | 5.0 | 0.00 | 0.00 | 0.00 | 97 | 1015.0 |
| 20260510130607 | 78 | 306 | 3.0 | 5.0 | 0.00 | 0.00 | 0.00 | 97 | 1015.0 |
| 20260510130504 | 78 | 306 | 3.0 | 5.0 | 0.00 | 0.00 | 0.00 | 97 | 1015.0 |
| 20260510130107 | 78 | 306 | 3.0 | 5.0 | 0.00 | 0.00 | 0.00 | 97 | 1015.0 |
| 20260510125607 | 77 | 306 | 3.0 | 5.0 | 0.00 | 0.00 | 0.00 | 98 | 1015.0 |
| 20260510125107 | 77 | 306 | 3.0 | 5.0 | 0.00 | 0.00 | 0.00 | 98 | 1015.0 |
| 20260510125004 | 77 | 306 | 3.0 | 5.0 | 0.00 | 0.00 | 0.00 | 98 | 1015.0 |
| 20260510124607 | 77 | 306 | 3.0 | 5.0 | 0.00 | 0.00 | 0.00 | 98 | 1015.0 |
| 20260510124504 | 77 | 306 | 3.0 | 5.0 | 0.00 | 0.00 | 0.00 | 98 | 1015.0 |
| 20260510124107 | 77 | 306 | 3.0 | 5.0 | 0.00 | 0.00 | 0.00 | 98 | 1014.9 |
| 20260510124004 | 77 | 306 | 3.0 | 5.0 | 0.00 | 0.00 | 0.00 | 98 | 1014.9 |
| 20260510123607 | 77 | 306 | 3.0 | 5.0 | 0.00 | 0.00 | 0.00 | 98 | 1014.8 |
| 20260510123504 | 77 | 306 | 3.0 | 5.0 | 0.00 | 0.00 | 0.00 | 98 | 1014.8 |
| 20260510123107 | 76 | 306 | 3.0 | 5.0 | 0.00 | 0.00 | 0.00 | 98 | 1014.6 |
| 20260510123004 | 76 | 306 | 3.0 | 5.0 | 0.00 | 0.00 | 0.00 | 98 | 1014.6 |
| 20260510122607 | 75 | 306 | 3.0 | 5.0 | 0.00 | 0.00 | 0.00 | 99 | 1014.6 |
| 20260510122504 | 75 | 306 | 3.0 | 5.0 | 0.00 | 0.00 | 0.00 | 99 | 1014.7 |
| 20260510122107 | 75 | 306 | 3.0 | 5.0 | 0.00 | 0.00 | 0.00 | 99 | 1014.7 |
| 20260510122004 | 75 | 306 | 3.0 | 5.0 | 0.00 | 0.00 | 0.00 | 99 | 1014.7 |
| 20260510121607 | 75 | 306 | 3.0 | 5.0 | 0.00 | 0.00 | 0.00 | 99 | 1014.7 |
| 20260510121107 | 75 | 306 | 3.0 | 5.0 | 0.00 | 0.00 | 0.00 | 99 | 1014.6 |
| 20260510121004 | 75 | 306 | 3.0 | 5.0 | 0.00 | 0.00 | 0.00 | 99 | 1014.6 |
| 20260510120607 | 74 | 306 | 3.0 | 5.0 | 0.00 | 0.00 | 0.00 | 99 | 1014.5 |
| 20260510120107 | 74 | 306 | 3.0 | 5.0 | 0.00 | 0.00 | 0.00 | 99 | 1014.4 |
| 20260510120004 | 74 | 306 | 3.0 | 5.0 | 0.00 | 0.00 | 0.00 | 99 | 1014.4 |
| 20260510115607 | 74 | 306 | 3.0 | 5.0 | 0.00 | 0.00 | 0.00 | 99 | 1014.3 |
| 20260510115505 | 74 | 306 | 3.0 | 5.0 | 0.00 | 0.00 | 0.00 | 99 | 1014.3 |
| 20260510115107 | 74 | 306 | 3.0 | 5.0 | 0.00 | 0.00 | 0.00 | 99 | 1014.3 |
| 20260510115004 | 74 | 306 | 3.0 | 5.0 | 0.00 | 0.00 | 0.00 | 99 | 1014.3 |
| 20260510114607 | 74 | 306 | 3.0 | 5.0 | 0.00 | 0.00 | 0.00 | 99 | 1014.3 |
| 20260510114504 | 74 | 306 | 3.0 | 5.0 | 0.00 | 0.00 | 0.00 | 99 | 1014.2 |
| 20260510114107 | 74 | 306 | 3.0 | 5.0 | 0.00 | 0.00 | 0.00 | 99 | 1014.2 |
| 20260510114003 | 74 | 306 | 3.0 | 5.0 | 0.00 | 0.00 | 0.00 | 99 | 1014.2 |
| 20260510113607 | 74 | 306 | 3.0 | 5.0 | 0.00 | 0.00 | 0.00 | 99 | 1014.2 |
| 20260510113504 | 74 | 306 | 3.0 | 5.0 | 0.00 | 0.00 | 0.00 | 99 | 1014.2 |
| 20260510113107 | 74 | 306 | 3.0 | 5.0 | 0.00 | 0.00 | 0.00 | 99 | 1014.1 |
| 20260510113005 | 74 | 306 | 3.0 | 5.0 | 0.00 | 0.00 | 0.00 | 99 | 1014.1 |
| 20260510112607 | 74 | 306 | 3.0 | 5.0 | 0.00 | 0.00 | 0.00 | 99 | 1014.0 |
| 20260510112503 | 74 | 306 | 3.0 | 5.0 | 0.00 | 0.00 | 0.00 | 99 | 1014.0 |
| 20260510112107 | 74 | 306 | 3.0 | 5.0 | 0.00 | 0.00 | 0.00 | 99 | 1014.0 |
| 20260510112004 | 74 | 306 | 3.0 | 5.0 | 0.00 | 0.00 | 0.00 | 99 | 1013.9 |
| 20260510111607 | 74 | 306 | 3.0 | 5.0 | 0.00 | 0.00 | 0.00 | 99 | 1013.9 |
| 20260510111107 | 74 | 306 | 3.0 | 5.0 | 0.00 | 0.00 | 0.00 | 98 | 1014.0 |
| 20260510111004 | 74 | 306 | 3.0 | 5.0 | 0.00 | 0.00 | 0.00 | 98 | 1014.0 |
| 20260510110607 | 74 | 306 | 3.0 | 5.0 | 0.00 | 0.00 | 0.00 | 98 | 1013.9 |
| 20260510110107 | 74 | 306 | 3.0 | 5.0 | 0.00 | 0.00 | 0.00 | 98 | 1013.9 |
| 20260510105607 | 74 | 306 | 3.0 | 5.0 | 0.00 | 0.00 | 0.00 | 98 | 1013.9 |
| 20260510105107 | 74 | 306 | 3.0 | 5.0 | 0.00 | 0.00 | 0.00 | 98 | 1013.8 |
| 20260510104607 | 74 | 306 | 3.0 | 5.0 | 0.00 | 0.00 | 0.00 | 98 | 1013.7 |
| 20260510104107 | 74 | 306 | 3.0 | 5.0 | 0.00 | 0.00 | 0.00 | 98 | 1013.6 |
| 20260510104004 | 74 | 306 | 3.0 | 5.0 | 0.00 | 0.00 | 0.00 | 98 | 1013.5 |
| 20260510103607 | 74 | 306 | 3.0 | 5.0 | 0.00 | 0.00 | 0.00 | 98 | 1013.5 |
| 20260510103503 | 74 | 306 | 3.0 | 5.0 | 0.00 | 0.00 | 0.00 | 98 | 1013.5 |
| 20260510103107 | 74 | 306 | 3.0 | 5.0 | 0.00 | 0.00 | 0.00 | 98 | 1013.4 |
| 20260510103004 | 74 | 306 | 3.0 | 5.0 | 0.00 | 0.00 | 0.00 | 98 | 1013.4 |
| 20260510102607 | 74 | 306 | 3.0 | 5.0 | 0.00 | 0.00 | 0.00 | 98 | 1013.3 |
| 20260510102504 | 74 | 306 | 3.0 | 5.0 | 0.00 | 0.00 | 0.00 | 98 | 1013.3 |
| 20260510102107 | 74 | 306 | 3.0 | 5.0 | 0.00 | 0.00 | 0.00 | 98 | 1013.3 |
| 20260510102003 | 74 | 306 | 3.0 | 5.0 | 0.00 | 0.00 | 0.00 | 98 | 1013.2 |
| 20260510101607 | 74 | 306 | 3.0 | 5.0 | 0.00 | 0.00 | 0.00 | 98 | 1013.2 |
| 20260510101504 | 74 | 306 | 3.0 | 5.0 | 0.00 | 0.00 | 0.00 | 98 | 1013.2 |
| 20260510101107 | 74 | 306 | 3.0 | 5.0 | 0.00 | 0.00 | 0.00 | 98 | 1013.1 |
| 20260510101004 | 74 | 306 | 3.0 | 5.0 | 0.00 | 0.00 | 0.00 | 98 | 1013.1 |
| 20260510100607 | 74 | 306 | 3.0 | 5.0 | 0.00 | 0.00 | 0.00 | 98 | 1013.1 |
| 20260510100107 | 74 | 306 | 3.0 | 5.0 | 0.00 | 0.00 | 0.00 | 98 | 1013.1 |
| 20260510100004 | 74 | 306 | 3.0 | 5.0 | 0.00 | 0.00 | 0.00 | 98 | 1013.0 |
| 20260510095607 | 74 | 306 | 3.0 | 5.0 | 0.00 | 0.00 | 0.00 | 98 | 1013.0 |
| 20260510095504 | 74 | 306 | 3.0 | 5.0 | 0.00 | 0.00 | 0.00 | 98 | 1013.0 |
| 20260510095107 | 74 | 306 | 3.0 | 5.0 | 0.00 | 0.00 | 0.00 | 98 | 1012.9 |
| 20260510095004 | 74 | 306 | 3.0 | 5.0 | 0.00 | 0.00 | 0.00 | 98 | 1012.9 |
| 20260510094607 | 74 | 306 | 3.0 | 5.0 | 0.00 | 0.00 | 0.00 | 98 | 1012.9 |
| 20260510094503 | 74 | 306 | 3.0 | 5.0 | 0.00 | 0.00 | 0.00 | 98 | 1012.9 |
| 20260510094107 | 74 | 306 | 3.0 | 5.0 | 0.00 | 0.00 | 0.00 | 98 | 1012.8 |
| 20260510094004 | 74 | 306 | 3.0 | 5.0 | 0.00 | 0.00 | 0.00 | 98 | 1012.9 |
| 20260510093607 | 74 | 306 | 3.0 | 5.0 | 0.00 | 0.00 | 0.00 | 98 | 1012.8 |
| 20260510093504 | 74 | 306 | 3.0 | 5.0 | 0.00 | 0.00 | 0.00 | 98 | 1012.8 |
| 20260510093107 | 74 | 306 | 3.0 | 5.0 | 0.00 | 0.00 | 0.00 | 98 | 1012.8 |
| 20260510093004 | 74 | 306 | 3.0 | 5.0 | 0.00 | 0.00 | 0.00 | 98 | 1012.8 |
| 20260510092607 | 74 | 306 | 3.0 | 5.0 | 0.00 | 0.00 | 0.00 | 97 | 1012.8 |
| 20260510092504 | 74 | 306 | 3.0 | 5.0 | 0.00 | 0.00 | 0.00 | 97 | 1012.8 |
| 20260510092107 | 74 | 306 | 3.0 | 5.0 | 0.00 | 0.00 | 0.00 | 97 | 1012.8 |
| 20260510092004 | 74 | 306 | 3.0 | 5.0 | 0.00 | 0.00 | 0.00 | 97 | 1012.8 |
| 20260510091607 | 74 | 306 | 3.0 | 5.0 | 0.00 | 0.00 | 0.00 | 97 | 1012.8 |
| 20260510091504 | 75 | 306 | 3.0 | 5.0 | 0.00 | 0.00 | 0.00 | 97 | 1012.8 |
| 20260510091107 | 75 | 306 | 3.0 | 5.0 | 0.00 | 0.00 | 0.00 | 97 | 1012.8 |
| 20260510091004 | 75 | 306 | 3.0 | 5.0 | 0.00 | 0.00 | 0.00 | 97 | 1012.7 |
| 20260510090607 | 75 | 306 | 3.0 | 5.0 | 0.00 | 0.00 | 0.00 | 97 | 1012.7 |
| 20260510090107 | 75 | 306 | 3.0 | 5.0 | 0.00 | 0.00 | 0.00 | 97 | 1012.6 |
| 20260510090004 | 75 | 306 | 3.0 | 5.0 | 0.00 | 0.00 | 0.00 | 97 | 1012.6 |
| 20260510085607 | 75 | 306 | 3.0 | 5.0 | 0.00 | 0.00 | 0.00 | 97 | 1012.7 |
| 20260510085504 | 75 | 306 | 3.0 | 5.0 | 0.00 | 0.00 | 0.00 | 97 | 1012.6 |
| 20260510085107 | 75 | 306 | 3.0 | 5.0 | 0.00 | 0.00 | 0.00 | 97 | 1012.6 |
| 20260510085004 | 75 | 306 | 3.0 | 5.0 | 0.00 | 0.00 | 0.00 | 97 | 1012.6 |
| 20260510084607 | 75 | 306 | 3.0 | 5.0 | 0.00 | 0.00 | 0.00 | 97 | 1012.6 |
| 20260510084504 | 75 | 306 | 3.0 | 5.0 | 0.00 | 0.00 | 0.00 | 97 | 1012.6 |
| 20260510084107 | 75 | 306 | 3.0 | 5.0 | 0.00 | 0.00 | 0.00 | 97 | 1012.5 |
| 20260510084003 | 75 | 306 | 3.0 | 5.0 | 0.00 | 0.00 | 0.00 | 97 | 1012.5 |
| 20260510083607 | 75 | 306 | 3.0 | 5.0 | 0.00 | 0.00 | 0.00 | 97 | 1012.4 |
| 20260510083504 | 75 | 306 | 3.0 | 5.0 | 0.00 | 0.00 | 0.00 | 97 | 1012.4 |
| 20260510083107 | 75 | 306 | 3.0 | 5.0 | 0.00 | 0.00 | 0.00 | 97 | 1012.4 |
| 20260510083004 | 75 | 306 | 3.0 | 5.0 | 0.00 | 0.00 | 0.00 | 97 | 1012.4 |
| 20260510082607 | 75 | 306 | 3.0 | 5.0 | 0.00 | 0.00 | 0.00 | 97 | 1012.4 |
| 20260510082504 | 75 | 306 | 3.0 | 5.0 | 0.00 | 0.00 | 0.00 | 97 | 1012.3 |
| 20260510082107 | 75 | 306 | 3.0 | 5.0 | 0.00 | 0.00 | 0.00 | 97 | 1012.3 |
| 20260510082004 | 75 | 306 | 3.0 | 5.0 | 0.00 | 0.00 | 0.00 | 97 | 1012.4 |
| 20260510081607 | 75 | 306 | 3.0 | 5.0 | 0.00 | 0.00 | 0.00 | 97 | 1012.4 |
| 20260510081504 | 75 | 306 | 3.0 | 5.0 | 0.00 | 0.00 | 0.00 | 97 | 1012.4 |
| 20260510081107 | 75 | 306 | 3.0 | 5.0 | 0.00 | 0.00 | 0.00 | 97 | 1012.5 |
| 20260510081005 | 75 | 306 | 3.0 | 5.0 | 0.00 | 0.00 | 0.00 | 97 | 1012.6 |
| 20260510080607 | 75 | 306 | 3.0 | 5.0 | 0.00 | 0.00 | 0.00 | 96 | 1012.6 |
| 20260510080504 | 75 | 306 | 3.0 | 5.0 | 0.00 | 0.00 | 0.00 | 97 | 1012.6 |
| 20260510080107 | 75 | 306 | 3.0 | 5.0 | 0.00 | 0.00 | 0.00 | 96 | 1012.6 |
| 20260510080004 | 75 | 306 | 3.0 | 5.0 | 0.00 | 0.00 | 0.00 | 97 | 1012.6 |
| 20260510075607 | 75 | 306 | 3.0 | 5.0 | 0.00 | 0.00 | 0.00 | 96 | 1012.6 |
| 20260510075107 | 75 | 306 | 3.0 | 5.0 | 0.00 | 0.00 | 0.00 | 96 | 1012.5 |
| 20260510075004 | 75 | 306 | 3.0 | 5.0 | 0.00 | 0.00 | 0.00 | 96 | 1012.6 |
| 20260510074607 | 75 | 306 | 3.0 | 5.0 | 0.00 | 0.00 | 0.00 | 96 | 1012.6 |
| 20260510074504 | 75 | 306 | 3.0 | 5.0 | 0.00 | 0.00 | 0.00 | 96 | 1012.6 |
| 20260510074107 | 75 | 306 | 3.0 | 5.0 | 0.00 | 0.00 | 0.00 | 96 | 1012.6 |
| 20260510074005 | 75 | 306 | 3.0 | 5.0 | 0.00 | 0.00 | 0.00 | 96 | 1012.6 |
| 20260510073607 | 75 | 306 | 3.0 | 5.0 | 0.00 | 0.00 | 0.00 | 96 | 1012.6 |
| 20260510073504 | 75 | 306 | 3.0 | 5.0 | 0.00 | 0.00 | 0.00 | 96 | 1012.5 |
| 20260510073107 | 75 | 306 | 3.0 | 5.0 | 0.00 | 0.00 | 0.00 | 96 | 1012.6 |
| 20260510073004 | 75 | 306 | 3.0 | 5.0 | 0.00 | 0.00 | 0.00 | 96 | 1012.6 |
| 20260510072607 | 75 | 306 | 3.0 | 5.0 | 0.00 | 0.00 | 0.00 | 96 | 1012.6 |
| 20260510072503 | 75 | 306 | 3.0 | 5.0 | 0.00 | 0.00 | 0.00 | 96 | 1012.6 |
| 20260510072107 | 75 | 306 | 3.0 | 5.0 | 0.00 | 0.00 | 0.00 | 96 | 1012.6 |
| 20260510072005 | 75 | 306 | 3.0 | 5.0 | 0.00 | 0.00 | 0.00 | 96 | 1012.6 |
| 20260510071607 | 75 | 306 | 3.0 | 5.0 | 0.00 | 0.00 | 0.00 | 96 | 1012.6 |
| 20260510071107 | 75 | 306 | 3.0 | 5.0 | 0.00 | 0.00 | 0.00 | 96 | 1012.7 |
| 20260510071004 | 75 | 306 | 3.0 | 5.0 | 0.00 | 0.00 | 0.00 | 96 | 1012.7 |
| 20260510070607 | 75 | 306 | 3.0 | 5.0 | 0.00 | 0.00 | 0.00 | 96 | 1012.8 |
| 20260510070505 | 75 | 306 | 3.0 | 5.0 | 0.00 | 0.00 | 0.00 | 96 | 1012.8 |
| 20260510070107 | 75 | 306 | 3.0 | 5.0 | 0.00 | 0.00 | 0.00 | 95 | 1012.8 |
| 20260510070004 | 75 | 306 | 3.0 | 5.0 | 0.00 | 0.00 | 0.00 | 95 | 1012.8 |
| 20260510065607 | 75 | 306 | 3.0 | 5.0 | 0.00 | 0.00 | 0.00 | 95 | 1012.9 |
| 20260510065507 | 75 | 306 | 3.0 | 5.0 | 0.00 | 0.00 | 0.00 | 95 | 1012.9 |
| 20260510065107 | 75 | 306 | 3.0 | 5.0 | 0.00 | 0.00 | 0.00 | 95 | 1013.0 |
| 20260510065004 | 75 | 306 | 3.0 | 5.0 | 0.00 | 0.00 | 0.00 | 95 | 1013.1 |
| 20260510064607 | 75 | 306 | 3.0 | 5.0 | 0.00 | 0.00 | 0.00 | 95 | 1013.2 |
| 20260510064505 | 76 | 306 | 3.0 | 5.0 | 0.00 | 0.00 | 0.00 | 95 | 1013.1 |
| 20260510064107 | 76 | 306 | 3.0 | 5.0 | 0.00 | 0.00 | 0.00 | 95 | 1013.1 |
| 20260510064003 | 76 | 306 | 3.0 | 5.0 | 0.00 | 0.00 | 0.00 | 95 | 1013.1 |
| 20260510063607 | 76 | 306 | 3.0 | 5.0 | 0.00 | 0.00 | 0.00 | 95 | 1013.1 |
| 20260510063107 | 76 | 306 | 3.0 | 5.0 | 0.00 | 0.00 | 0.00 | 95 | 1013.2 |
| 20260510063005 | 76 | 306 | 3.0 | 5.0 | 0.00 | 0.00 | 0.00 | 95 | 1013.2 |
| 20260510062607 | 76 | 306 | 3.0 | 5.0 | 0.00 | 0.00 | 0.00 | 95 | 1013.2 |
| 20260510062107 | 76 | 306 | 3.0 | 5.0 | 0.00 | 0.00 | 0.00 | 95 | 1013.4 |
| 20260510062004 | 76 | 306 | 3.0 | 5.0 | 0.00 | 0.00 | 0.00 | 95 | 1013.4 |
| 20260510061607 | 76 | 306 | 3.0 | 5.0 | 0.00 | 0.00 | 0.00 | 94 | 1013.4 |
| 20260510061504 | 76 | 306 | 3.0 | 5.0 | 0.00 | 0.00 | 0.00 | 94 | 1013.4 |
| 20260510061107 | 76 | 306 | 3.0 | 5.0 | 0.00 | 0.00 | 0.00 | 94 | 1013.4 |
| 20260510061004 | 76 | 306 | 3.0 | 5.0 | 0.00 | 0.00 | 0.00 | 94 | 1013.4 |
| 20260510060607 | 76 | 306 | 3.0 | 5.0 | 0.00 | 0.00 | 0.00 | 94 | 1013.5 |
| 20260510060503 | 76 | 306 | 3.0 | 5.0 | 0.00 | 0.00 | 0.00 | 94 | 1013.5 |
| 20260510060107 | 76 | 306 | 3.0 | 5.0 | 0.00 | 0.00 | 0.00 | 94 | 1013.5 |
| 20260510055607 | 76 | 306 | 3.0 | 5.0 | 0.00 | 0.00 | 0.00 | 94 | 1013.6 |
| 20260510055504 | 76 | 306 | 3.0 | 5.0 | 0.00 | 0.00 | 0.00 | 94 | 1013.6 |
| 20260510055107 | 76 | 306 | 3.0 | 5.0 | 0.00 | 0.00 | 0.00 | 94 | 1013.6 |
| 20260510055005 | 76 | 306 | 3.0 | 5.0 | 0.00 | 0.00 | 0.00 | 94 | 1013.6 |
| 20260510054607 | 76 | 306 | 3.0 | 5.0 | 0.00 | 0.00 | 0.00 | 94 | 1013.6 |
| 20260510054504 | 76 | 306 | 3.0 | 5.0 | 0.00 | 0.00 | 0.00 | 94 | 1013.7 |
| 20260510054107 | 76 | 306 | 3.0 | 5.0 | 0.00 | 0.00 | 0.00 | 94 | 1013.7 |
| 20260510054003 | 76 | 306 | 3.0 | 5.0 | 0.00 | 0.00 | 0.00 | 94 | 1013.8 |
| 20260510053607 | 76 | 306 | 3.0 | 5.0 | 0.00 | 0.00 | 0.00 | 94 | 1013.8 |
| 20260510053504 | 76 | 306 | 3.0 | 5.0 | 0.00 | 0.00 | 0.00 | 94 | 1013.8 |
| 20260510053107 | 76 | 306 | 3.0 | 5.0 | 0.00 | 0.00 | 0.00 | 94 | 1013.8 |
| 20260510053004 | 76 | 306 | 3.0 | 5.0 | 0.00 | 0.00 | 0.00 | 94 | 1013.8 |
| 20260510052607 | 75 | 306 | 3.0 | 5.0 | 0.00 | 0.00 | 0.00 | 93 | 1013.9 |
| 20260510052504 | 75 | 306 | 3.0 | 5.0 | 0.00 | 0.00 | 0.00 | 93 | 1013.9 |
| 20260510052107 | 75 | 306 | 3.0 | 5.0 | 0.00 | 0.00 | 0.00 | 93 | 1014.0 |
| 20260510051607 | 75 | 306 | 3.0 | 5.0 | 0.00 | 0.00 | 0.00 | 93 | 1014.0 |
| 20260510051504 | 75 | 306 | 3.0 | 5.0 | 0.00 | 0.00 | 0.00 | 93 | 1014.1 |
| 20260510051107 | 76 | 306 | 3.0 | 5.0 | 0.00 | 0.00 | 0.00 | 93 | 1014.1 |
| 20260510051004 | 76 | 306 | 3.0 | 5.0 | 0.00 | 0.00 | 0.00 | 93 | 1014.1 |
| 20260510050607 | 76 | 306 | 3.0 | 5.0 | 0.00 | 0.00 | 0.00 | 93 | 1014.2 |
| 20260510050503 | 76 | 306 | 3.0 | 5.0 | 0.00 | 0.00 | 0.00 | 93 | 1014.2 |
| 20260510050107 | 76 | 306 | 3.0 | 5.0 | 0.00 | 0.00 | 0.00 | 93 | 1014.2 |
| 20260510050005 | 76 | 306 | 3.0 | 5.0 | 0.00 | 0.00 | 0.00 | 93 | 1014.2 |
| 20260510045607 | 76 | 306 | 3.0 | 5.0 | 0.00 | 0.00 | 0.00 | 93 | 1014.2 |
| 20260510045504 | 76 | 306 | 3.0 | 5.0 | 0.00 | 0.00 | 0.00 | 93 | 1014.2 |
| 20260510045107 | 76 | 306 | 3.0 | 5.0 | 0.00 | 0.00 | 0.00 | 93 | 1014.2 |
| 20260510044607 | 76 | 306 | 3.0 | 5.0 | 0.00 | 0.00 | 0.00 | 93 | 1014.1 |
| 20260510044503 | 76 | 306 | 3.0 | 5.0 | 0.00 | 0.00 | 0.00 | 93 | 1014.1 |
| 20260510044107 | 76 | 306 | 3.0 | 5.0 | 0.00 | 0.00 | 0.00 | 93 | 1014.0 |
| 20260510044004 | 76 | 306 | 3.0 | 5.0 | 0.00 | 0.00 | 0.00 | 93 | 1014.0 |
| 20260510043607 | 76 | 306 | 3.0 | 5.0 | 0.00 | 0.00 | 0.00 | 92 | 1014.1 |
| 20260510043504 | 76 | 306 | 3.0 | 5.0 | 0.00 | 0.00 | 0.00 | 92 | 1014.1 |
| 20260510043107 | 76 | 306 | 3.0 | 5.0 | 0.00 | 0.00 | 0.00 | 92 | 1014.2 |
| 20260510043005 | 76 | 306 | 3.0 | 5.0 | 0.00 | 0.00 | 0.00 | 92 | 1014.2 |
| 20260510042607 | 76 | 306 | 3.0 | 5.0 | 0.00 | 0.00 | 0.00 | 92 | 1014.2 |
| 20260510042504 | 76 | 306 | 3.0 | 5.0 | 0.00 | 0.00 | 0.00 | 92 | 1014.2 |
| 20260510042107 | 76 | 306 | 3.0 | 5.0 | 0.00 | 0.00 | 0.00 | 92 | 1014.2 |
| 20260510042005 | 76 | 306 | 3.0 | 5.0 | 0.00 | 0.00 | 0.00 | 92 | 1014.2 |
| 20260510041607 | 76 | 306 | 3.0 | 5.0 | 0.00 | 0.00 | 0.00 | 92 | 1014.3 |
| 20260510041504 | 76 | 306 | 3.0 | 5.0 | 0.00 | 0.00 | 0.00 | 92 | 1014.3 |
| 20260510041107 | 77 | 306 | 3.0 | 5.0 | 0.00 | 0.00 | 0.00 | 92 | 1014.2 |
| 20260510040607 | 76 | 306 | 3.0 | 5.0 | 0.00 | 0.00 | 0.00 | 92 | 1014.2 |
| 20260510040504 | 76 | 306 | 3.0 | 5.0 | 0.00 | 0.00 | 0.00 | 92 | 1014.3 |
| 20260510040107 | 76 | 306 | 3.0 | 5.0 | 0.00 | 0.00 | 0.00 | 91 | 1014.3 |
| 20260510040004 | 76 | 306 | 3.0 | 5.0 | 0.00 | 0.00 | 0.00 | 91 | 1014.3 |
| 20260510035607 | 76 | 306 | 3.0 | 5.0 | 0.00 | 0.00 | 0.00 | 91 | 1014.3 |
| 20260510035504 | 76 | 306 | 3.0 | 5.0 | 0.00 | 0.00 | 0.00 | 91 | 1014.3 |
| 20260510035107 | 76 | 306 | 3.0 | 5.0 | 0.00 | 0.00 | 0.00 | 91 | 1014.2 |
| 20260510035004 | 76 | 306 | 3.0 | 5.0 | 0.00 | 0.00 | 0.00 | 91 | 1014.2 |
| 20260510034607 | 76 | 306 | 3.0 | 5.0 | 0.00 | 0.00 | 0.00 | 91 | 1014.3 |
| 20260510034504 | 76 | 306 | 3.0 | 5.0 | 0.00 | 0.00 | 0.00 | 91 | 1014.3 |
| 20260510034107 | 76 | 306 | 3.0 | 5.0 | 0.00 | 0.00 | 0.00 | 91 | 1014.3 |
| 20260510033607 | 76 | 306 | 3.0 | 5.0 | 0.00 | 0.00 | 0.00 | 92 | 1014.2 |
| 20260510033107 | 76 | 306 | 3.0 | 5.0 | 0.00 | 0.00 | 0.00 | 91 | 1014.2 |
| 20260510033004 | 76 | 306 | 3.0 | 5.0 | 0.00 | 0.00 | 0.00 | 91 | 1014.2 |
| 20260510032607 | 76 | 306 | 3.0 | 5.0 | 0.00 | 0.00 | 0.00 | 91 | 1014.2 |
| 20260510032504 | 76 | 306 | 3.0 | 5.0 | 0.00 | 0.00 | 0.00 | 91 | 1014.2 |
| 20260510032107 | 76 | 306 | 3.0 | 5.0 | 0.00 | 0.00 | 0.00 | 91 | 1014.3 |
| 20260510032004 | 76 | 306 | 3.0 | 5.0 | 0.00 | 0.00 | 0.00 | 91 | 1014.3 |
| 20260510031607 | 76 | 306 | 3.0 | 5.0 | 0.00 | 0.00 | 0.00 | 91 | 1014.2 |
| 20260510031504 | 76 | 306 | 3.0 | 5.0 | 0.00 | 0.00 | 0.00 | 91 | 1014.3 |
| 20260510031107 | 76 | 306 | 3.0 | 5.0 | 0.00 | 0.00 | 0.00 | 91 | 1014.3 |
| 20260510031004 | 76 | 306 | 3.0 | 5.0 | 0.00 | 0.00 | 0.00 | 91 | 1014.3 |
| 20260510030607 | 76 | 306 | 3.0 | 5.0 | 0.00 | 0.00 | 0.00 | 91 | 1014.3 |
| 20260510030504 | 76 | 306 | 3.0 | 5.0 | 0.00 | 0.00 | 0.00 | 91 | 1014.3 |
| 20260510030107 | 76 | 306 | 3.0 | 5.0 | 0.00 | 0.00 | 0.00 | 91 | 1014.2 |
| 20260510030004 | 76 | 306 | 3.0 | 5.0 | 0.00 | 0.00 | 0.00 | 91 | 1014.2 |
| 20260510025607 | 77 | 306 | 3.0 | 5.0 | 0.00 | 0.00 | 0.00 | 91 | 1014.1 |
| 20260510025504 | 77 | 306 | 3.0 | 5.0 | 0.00 | 0.00 | 0.00 | 91 | 1014.1 |
| 20260510025107 | 77 | 306 | 3.0 | 5.0 | 0.00 | 0.00 | 0.00 | 91 | 1014.1 |
| 20260510025003 | 77 | 306 | 3.0 | 5.0 | 0.00 | 0.00 | 0.00 | 91 | 1014.0 |
| 20260510024607 | 77 | 306 | 3.0 | 5.0 | 0.00 | 0.00 | 0.00 | 91 | 1014.0 |
| 20260510024504 | 77 | 306 | 3.0 | 5.0 | 0.00 | 0.00 | 0.00 | 91 | 1014.0 |
| 20260510024107 | 76 | 306 | 3.0 | 5.0 | 0.00 | 0.00 | 0.00 | 91 | 1013.9 |
| 20260510024004 | 76 | 306 | 3.0 | 5.0 | 0.00 | 0.00 | 0.00 | 90 | 1013.9 |
| 20260510023607 | 76 | 306 | 3.0 | 5.0 | 0.00 | 0.00 | 0.00 | 90 | 1013.9 |
| 20260510023504 | 76 | 306 | 3.0 | 5.0 | 0.00 | 0.00 | 0.00 | 90 | 1013.9 |
| 20260510023107 | 76 | 306 | 3.0 | 5.0 | 0.00 | 0.00 | 0.00 | 90 | 1014.1 |
| 20260510023004 | 76 | 306 | 3.0 | 5.0 | 0.00 | 0.00 | 0.00 | 90 | 1014.0 |
| 20260510022607 | 76 | 306 | 3.0 | 5.0 | 0.00 | 0.00 | 0.00 | 90 | 1014.1 |
| 20260510022504 | 76 | 306 | 3.0 | 5.0 | 0.00 | 0.00 | 0.00 | 90 | 1014.1 |
| 20260510022107 | 76 | 306 | 3.0 | 5.0 | 0.00 | 0.00 | 0.00 | 89 | 1013.9 |
| 20260510022005 | 76 | 306 | 3.0 | 5.0 | 0.00 | 0.00 | 0.00 | 89 | 1014.0 |
| 20260510021607 | 76 | 306 | 3.0 | 5.0 | 0.00 | 0.00 | 0.00 | 89 | 1014.1 |
| 20260510021504 | 76 | 306 | 3.0 | 5.0 | 0.00 | 0.00 | 0.00 | 89 | 1014.1 |
| 20260510021107 | 76 | 306 | 3.0 | 5.0 | 0.00 | 0.00 | 0.00 | 89 | 1014.1 |
| 20260510021005 | 76 | 306 | 3.0 | 5.0 | 0.00 | 0.00 | 0.00 | 89 | 1014.1 |
| 20260510020607 | 76 | 306 | 3.0 | 5.0 | 0.00 | 0.00 | 0.00 | 89 | 1014.1 |
| 20260510020504 | 76 | 306 | 3.0 | 5.0 | 0.00 | 0.00 | 0.00 | 89 | 1014.0 |
| 20260510020107 | 76 | 306 | 3.0 | 5.0 | 0.00 | 0.00 | 0.00 | 89 | 1013.9 |
| 20260510020005 | 76 | 306 | 3.0 | 5.0 | 0.00 | 0.00 | 0.00 | 89 | 1013.9 |
| 20260510015607 | 76 | 306 | 3.0 | 5.0 | 0.00 | 0.00 | 0.00 | 89 | 1013.8 |
| 20260510015504 | 76 | 306 | 3.0 | 5.0 | 0.00 | 0.00 | 0.00 | 89 | 1013.8 |
| 20260510015107 | 75 | 306 | 3.0 | 5.0 | 0.00 | 0.00 | 0.00 | 89 | 1013.7 |
| 20260510014607 | 75 | 306 | 3.0 | 5.0 | 0.00 | 0.00 | 0.00 | 89 | 1013.7 |
| 20260510014504 | 75 | 306 | 3.0 | 5.0 | 0.00 | 0.00 | 0.00 | 89 | 1013.7 |
| 20260510014107 | 75 | 306 | 3.0 | 5.0 | 0.00 | 0.00 | 0.00 | 90 | 1013.7 |
| 20260510014004 | 75 | 306 | 3.0 | 5.0 | 0.00 | 0.00 | 0.00 | 90 | 1013.7 |
| 20260510013607 | 75 | 306 | 3.0 | 5.0 | 0.00 | 0.00 | 0.00 | 90 | 1013.8 |
| 20260510013504 | 75 | 306 | 3.0 | 5.0 | 0.00 | 0.00 | 0.00 | 90 | 1013.8 |
| 20260510013106 | 75 | 306 | 3.0 | 5.0 | 0.00 | 0.00 | 0.00 | 90 | 1013.7 |
| 20260510012607 | 75 | 306 | 3.0 | 5.0 | 0.00 | 0.00 | 0.00 | 90 | 1013.6 |
| 20260510012504 | 75 | 306 | 3.0 | 5.0 | 0.00 | 0.00 | 0.00 | 90 | 1013.6 |
| 20260510012107 | 75 | 306 | 3.0 | 5.0 | 0.00 | 0.00 | 0.00 | 91 | 1013.6 |
| 20260510011606 | 75 | 306 | 3.0 | 5.0 | 0.00 | 0.00 | 0.00 | 91 | 1013.4 |
| 20260510011504 | 75 | 306 | 3.0 | 5.0 | 0.00 | 0.00 | 0.00 | 91 | 1013.5 |
| 20260510011106 | 75 | 306 | 3.0 | 5.0 | 0.00 | 0.00 | 0.00 | 91 | 1013.6 |
| 20260510011004 | 75 | 306 | 3.0 | 5.0 | 0.00 | 0.00 | 0.00 | 91 | 1013.6 |
| 20260510010607 | 75 | 306 | 3.0 | 5.0 | 0.00 | 0.00 | 0.00 | 91 | 1013.6 |
| 20260510010504 | 75 | 306 | 3.0 | 5.0 | 0.00 | 0.00 | 0.00 | 91 | 1013.6 |
| 20260510010106 | 75 | 306 | 3.0 | 5.0 | 0.00 | 0.00 | 0.00 | 91 | 1013.6 |
| 20260510010004 | 75 | 306 | 3.0 | 5.0 | 0.00 | 0.00 | 0.00 | 91 | 1013.6 |
| 20260510005606 | 75 | 306 | 3.0 | 5.0 | 0.00 | 0.00 | 0.00 | 91 | 1013.5 |
| 20260510005504 | 75 | 306 | 3.0 | 5.0 | 0.00 | 0.00 | 0.00 | 91 | 1013.5 |
| 20260510005106 | 75 | 306 | 3.0 | 5.0 | 0.00 | 0.00 | 0.00 | 91 | 1013.4 |
| 20260510005004 | 75 | 306 | 3.0 | 5.0 | 0.00 | 0.00 | 0.00 | 91 | 1013.4 |
| 20260510004606 | 75 | 306 | 3.0 | 5.0 | 0.00 | 0.00 | 0.00 | 92 | 1013.4 |
| 20260510004504 | 75 | 306 | 3.0 | 5.0 | 0.00 | 0.00 | 0.00 | 92 | 1013.4 |
| 20260510004106 | 75 | 306 | 3.0 | 5.0 | 0.00 | 0.00 | 0.00 | 92 | 1013.4 |
| 20260510004004 | 76 | 306 | 3.0 | 5.0 | 0.00 | 0.00 | 0.00 | 92 | 1013.4 |
| 20260510003606 | 76 | 306 | 3.0 | 5.0 | 0.00 | 0.00 | 0.00 | 92 | 1013.3 |
| 20260510003504 | 76 | 306 | 3.0 | 5.0 | 0.00 | 0.00 | 0.00 | 92 | 1013.2 |
| 20260510003106 | 76 | 306 | 3.0 | 5.0 | 0.00 | 0.00 | 0.00 | 92 | 1013.1 |
| 20260510003004 | 76 | 306 | 3.0 | 5.0 | 0.00 | 0.00 | 0.00 | 92 | 1013.1 |
| 20260510002606 | 76 | 306 | 3.0 | 5.0 | 0.00 | 0.00 | 0.00 | 92 | 1013.0 |
| 20260510002504 | 76 | 306 | 3.0 | 5.0 | 0.00 | 0.00 | 0.00 | 92 | 1013.1 |
| 20260510002106 | 76 | 306 | 3.0 | 5.0 | 0.00 | 0.00 | 0.00 | 92 | 1013.1 |
| 20260510002004 | 76 | 306 | 3.0 | 5.0 | 0.00 | 0.00 | 0.00 | 92 | 1013.1 |
| 20260510001606 | 76 | 306 | 3.0 | 5.0 | 0.00 | 0.00 | 0.00 | 92 | 1013.1 |
| 20260510001504 | 76 | 306 | 3.0 | 5.0 | 0.00 | 0.00 | 0.00 | 92 | 1013.1 |
| 20260510001106 | 76 | 306 | 3.0 | 5.0 | 0.00 | 0.00 | 0.00 | 92 | 1013.1 |
| 20260510001004 | 76 | 306 | 3.0 | 5.0 | 0.00 | 0.00 | 0.00 | 92 | 1013.1 |
| 20260510000606 | 76 | 306 | 3.0 | 5.0 | 0.00 | 0.00 | 0.00 | 92 | 1012.9 |
| 20260510000504 | 76 | 306 | 3.0 | 5.0 | 0.00 | 0.00 | 0.00 | 92 | 1012.9 |
| 20260510000106 | 76 | 306 | 3.0 | 5.0 | 0.00 | 0.00 | 0.00 | 91 | 1012.9 |
| 20260510000004 | 76 | 306 | 3.0 | 5.0 | 0.00 | 0.00 | 0.00 | 92 | 1012.8 |
| 20260509235606 | 76 | 306 | 3.0 | 5.0 | 0.00 | 0.00 | 0.00 | 92 | 1012.8 |
| 20260509235504 | 75 | 306 | 3.0 | 5.0 | 0.00 | 0.00 | 0.00 | 92 | 1012.8 |
| 20260509235106 | 75 | 306 | 3.0 | 5.0 | 0.00 | 0.00 | 0.00 | 92 | 1012.7 |
| 20260509235004 | 75 | 306 | 3.0 | 5.0 | 0.00 | 0.00 | 0.00 | 92 | 1012.7 |
| 20260509234606 | 76 | 306 | 3.0 | 5.0 | 0.00 | 0.00 | 0.00 | 92 | 1012.7 |
| 20260509234504 | 76 | 306 | 3.0 | 5.0 | 0.00 | 0.00 | 0.00 | 92 | 1012.6 |
| 20260509234106 | 76 | 306 | 3.0 | 5.0 | 0.00 | 0.00 | 0.00 | 92 | 1012.6 |
| 20260509234005 | 76 | 306 | 3.0 | 5.0 | 0.00 | 0.00 | 0.00 | 92 | 1012.6 |
| 20260509233536 | 76 | 306 | 3.0 | 5.0 | 0.00 | 0.00 | 0.00 | 92 | 1012.6 |
| 20260509233504 | 76 | 306 | 3.0 | 5.0 | 0.00 | 0.00 | 0.00 | 92 | 1012.6 |
| 20260509233036 | 76 | 306 | 3.0 | 5.0 | 0.00 | 0.00 | 0.00 | 92 | 1012.5 |
| 20260509233004 | 76 | 306 | 3.0 | 5.0 | 0.00 | 0.00 | 0.00 | 92 | 1012.5 |
| 20260509232536 | 76 | 306 | 3.0 | 5.0 | 0.00 | 0.00 | 0.00 | 92 | 1012.4 |
| 20260509232504 | 76 | 306 | 3.0 | 5.0 | 0.00 | 0.00 | 0.00 | 92 | 1012.4 |
| 20260509232036 | 76 | 306 | 3.0 | 5.0 | 0.00 | 0.00 | 0.00 | 92 | 1012.4 |
| 20260509232004 | 76 | 306 | 3.0 | 5.0 | 0.00 | 0.00 | 0.00 | 92 | 1012.4 |
| 20260509231536 | 76 | 306 | 3.0 | 5.0 | 0.00 | 0.00 | 0.00 | 92 | 1012.4 |
| 20260509231504 | 76 | 306 | 3.0 | 5.0 | 0.00 | 0.00 | 0.00 | 92 | 1012.4 |
| 20260509231036 | 76 | 306 | 3.0 | 5.0 | 0.00 | 0.00 | 0.00 | 92 | 1012.4 |
| 20260509230536 | 76 | 306 | 3.0 | 5.0 | 0.00 | 0.00 | 0.00 | 92 | 1012.4 |
| 20260509230504 | 76 | 306 | 3.0 | 5.0 | 0.00 | 0.00 | 0.00 | 92 | 1012.4 |
| 20260509230036 | 76 | 306 | 3.0 | 5.0 | 0.00 | 0.00 | 0.00 | 93 | 1012.3 |
| 20260509230004 | 76 | 306 | 3.0 | 5.0 | 0.00 | 0.00 | 0.00 | 93 | 1012.3 |
| 20260509225536 | 76 | 306 | 3.0 | 5.0 | 0.00 | 0.00 | 0.00 | 92 | 1012.2 |
| 20260509225036 | 76 | 306 | 3.0 | 5.0 | 0.00 | 0.00 | 0.00 | 92 | 1012.3 |
| 20260509225004 | 76 | 306 | 3.0 | 5.0 | 0.00 | 0.00 | 0.00 | 92 | 1012.3 |
| 20260509224536 | 76 | 306 | 3.0 | 5.0 | 0.00 | 0.00 | 0.00 | 92 | 1012.5 |
| 20260509224504 | 76 | 306 | 3.0 | 5.0 | 0.00 | 0.00 | 0.00 | 92 | 1012.5 |
| 20260509224036 | 76 | 306 | 3.0 | 5.0 | 0.00 | 0.00 | 0.00 | 92 | 1012.6 |
| 20260509224004 | 76 | 306 | 3.0 | 5.0 | 0.00 | 0.00 | 0.00 | 92 | 1012.6 |
| 20260509223536 | 76 | 306 | 3.0 | 5.0 | 0.00 | 0.00 | 0.00 | 92 | 1012.7 |
| 20260509223504 | 76 | 306 | 3.0 | 5.0 | 0.00 | 0.00 | 0.00 | 92 | 1012.7 |
| 20260509223036 | 77 | 306 | 3.0 | 5.0 | 0.00 | 0.00 | 0.00 | 92 | 1012.5 |
| 20260509223004 | 77 | 306 | 3.0 | 5.0 | 0.00 | 0.00 | 0.00 | 92 | 1012.5 |
| 20260509222536 | 77 | 306 | 3.0 | 5.0 | 0.00 | 0.00 | 0.00 | 92 | 1012.5 |
| 20260509222504 | 77 | 306 | 3.0 | 5.0 | 0.00 | 0.00 | 0.00 | 92 | 1012.5 |
| 20260509222036 | 77 | 306 | 3.0 | 5.0 | 0.00 | 0.00 | 0.00 | 92 | 1012.2 |
| 20260509222004 | 77 | 306 | 3.0 | 5.0 | 0.00 | 0.00 | 0.00 | 92 | 1012.2 |
| 20260509221536 | 77 | 306 | 3.0 | 5.0 | 0.00 | 0.00 | 0.00 | 92 | 1012.1 |
| 20260509221504 | 77 | 306 | 3.0 | 5.0 | 0.00 | 0.00 | 0.00 | 92 | 1012.1 |
| 20260509221036 | 77 | 306 | 3.0 | 5.0 | 0.00 | 0.00 | 0.00 | 92 | 1012.1 |
| 20260509220536 | 76 | 306 | 3.0 | 5.0 | 0.00 | 0.00 | 0.00 | 92 | 1012.0 |
| 20260509220504 | 76 | 306 | 3.0 | 5.0 | 0.00 | 0.00 | 0.00 | 92 | 1012.0 |
| 20260509220036 | 76 | 306 | 3.0 | 5.0 | 0.00 | 0.00 | 0.00 | 92 | 1012.1 |
| 20260509220004 | 76 | 306 | 3.0 | 5.0 | 0.00 | 0.00 | 0.00 | 92 | 1012.1 |
| 20260509215536 | 76 | 306 | 3.0 | 5.0 | 0.00 | 0.00 | 0.00 | 92 | 1012.0 |
| 20260509215504 | 76 | 306 | 3.0 | 5.0 | 0.00 | 0.00 | 0.00 | 92 | 1012.0 |
| 20260509215036 | 76 | 306 | 3.0 | 5.0 | 0.00 | 0.00 | 0.00 | 91 | 1012.1 |
| 20260509215004 | 76 | 306 | 3.0 | 5.0 | 0.00 | 0.00 | 0.00 | 91 | 1012.1 |
| 20260509214536 | 76 | 306 | 3.0 | 5.0 | 0.00 | 0.00 | 0.00 | 91 | 1012.1 |
| 20260509214504 | 76 | 306 | 3.0 | 5.0 | 0.00 | 0.00 | 0.00 | 91 | 1012.1 |
| 20260509214036 | 76 | 306 | 3.0 | 5.0 | 0.00 | 0.00 | 0.00 | 91 | 1012.1 |
| 20260509213536 | 76 | 306 | 3.0 | 5.0 | 0.00 | 0.00 | 0.00 | 91 | 1012.0 |
| 20260509213504 | 76 | 306 | 3.0 | 5.0 | 0.00 | 0.00 | 0.00 | 91 | 1012.0 |
| 20260509213036 | 76 | 306 | 3.0 | 5.0 | 0.00 | 0.00 | 0.00 | 91 | 1012.2 |
| 20260509213004 | 76 | 306 | 3.0 | 5.0 | 0.00 | 0.00 | 0.00 | 91 | 1012.2 |
| 20260509212536 | 76 | 306 | 3.0 | 5.0 | 0.00 | 0.00 | 0.00 | 90 | 1012.3 |
| 20260509212503 | 76 | 306 | 3.0 | 5.0 | 0.00 | 0.00 | 0.00 | 90 | 1012.3 |
| 20260509212036 | 76 | 306 | 3.0 | 5.0 | 0.00 | 0.00 | 0.00 | 90 | 1012.3 |
| 20260509212004 | 76 | 306 | 3.0 | 5.0 | 0.00 | 0.00 | 0.00 | 90 | 1012.3 |
| 20260509211536 | 77 | 306 | 3.0 | 5.0 | 0.00 | 0.00 | 0.00 | 89 | 1012.3 |
| 20260509211006 | 77 | 306 | 3.0 | 5.0 | 0.00 | 0.00 | 0.00 | 88 | 1012.1 |
| 20260509211004 | 77 | 306 | 3.0 | 5.0 | 0.00 | 0.00 | 0.00 | 88 | 1012.1 |
| 20260509210506 | 77 | 306 | 3.0 | 5.0 | 0.00 | 0.00 | 0.00 | 86 | 1012.1 |
| 20260509210504 | 77 | 306 | 3.0 | 5.0 | 0.00 | 0.00 | 0.00 | 86 | 1012.1 |
| 20260509210006 | 76 | 306 | 3.0 | 5.0 | 0.00 | 0.00 | 0.00 | 85 | 1011.9 |
| 20260509205506 | 76 | 306 | 3.0 | 5.0 | 0.00 | 0.00 | 0.00 | 85 | 1011.8 |
| 20260509205504 | 76 | 306 | 3.0 | 5.0 | 0.00 | 0.00 | 0.00 | 85 | 1011.8 |
| 20260509205006 | 76 | 306 | 3.0 | 5.0 | 0.00 | 0.00 | 0.00 | 86 | 1011.8 |
| 20260509205004 | 76 | 306 | 3.0 | 5.0 | 0.00 | 0.00 | 0.00 | 86 | 1011.8 |
| 20260509204506 | 76 | 306 | 3.0 | 5.0 | 0.00 | 0.00 | 0.00 | 85 | 1011.7 |
| 20260509204504 | 76 | 306 | 3.0 | 5.0 | 0.00 | 0.00 | 0.00 | 85 | 1011.7 |
| 20260509204006 | 76 | 306 | 3.0 | 5.0 | 0.00 | 0.00 | 0.00 | 86 | 1011.9 |
| 20260509204003 | 76 | 306 | 3.0 | 5.0 | 0.00 | 0.00 | 0.00 | 86 | 1011.9 |
| 20260509203506 | 75 | 306 | 3.0 | 5.0 | 0.00 | 0.00 | 0.00 | 86 | 1011.9 |
| 20260509203504 | 75 | 306 | 3.0 | 5.0 | 0.00 | 0.00 | 0.00 | 86 | 1011.9 |
| 20260509203007 | 75 | 306 | 3.0 | 5.0 | 0.00 | 0.00 | 0.00 | 88 | 1011.9 |
| 20260509203004 | 75 | 306 | 3.0 | 5.0 | 0.00 | 0.00 | 0.00 | 88 | 1011.9 |
| 20260509202506 | 75 | 306 | 3.0 | 5.0 | 0.00 | 0.00 | 0.00 | 88 | 1012.0 |
| 20260509202504 | 75 | 306 | 3.0 | 5.0 | 0.00 | 0.00 | 0.00 | 88 | 1012.0 |
| 20260509202006 | 74 | 306 | 3.0 | 5.0 | 0.00 | 0.00 | 0.00 | 89 | 1012.4 |
| 20260509202003 | 74 | 306 | 3.0 | 5.0 | 0.00 | 0.00 | 0.00 | 89 | 1012.4 |
| 20260509201506 | 76 | 306 | 3.0 | 5.0 | 0.00 | 0.00 | 0.00 | 89 | 1012.5 |
| 20260509201504 | 76 | 306 | 3.0 | 5.0 | 0.00 | 0.00 | 0.00 | 89 | 1012.5 |
| 20260509201006 | 79 | 306 | 3.0 | 5.0 | 0.00 | 0.00 | 0.00 | 88 | 1012.5 |
| 20260509201004 | 79 | 306 | 3.0 | 5.0 | 0.00 | 0.00 | 0.00 | 88 | 1012.5 |
| 20260509200506 | 80 | 306 | 3.0 | 5.0 | 0.00 | 0.00 | 0.00 | 90 | 1012.0 |
| 20260509200504 | 80 | 306 | 3.0 | 5.0 | 0.00 | 0.00 | 0.00 | 90 | 1012.0 |
| 20260509200006 | 80 | 306 | 3.0 | 5.0 | 0.00 | 0.00 | 0.00 | 90 | 1011.6 |
| 20260509200004 | 80 | 306 | 3.0 | 5.0 | 0.00 | 0.00 | 0.00 | 90 | 1011.6 |
| 20260509195506 | 80 | 306 | 3.0 | 5.0 | 0.00 | 0.00 | 0.00 | 89 | 1011.4 |
| 20260509195504 | 80 | 306 | 3.0 | 5.0 | 0.00 | 0.00 | 0.00 | 89 | 1011.4 |
| 20260509195006 | 80 | 306 | 3.0 | 5.0 | 0.00 | 0.00 | 0.00 | 89 | 1011.3 |
| 20260509195004 | 80 | 306 | 3.0 | 5.0 | 0.00 | 0.00 | 0.00 | 89 | 1011.3 |
| 20260509194506 | 80 | 306 | 3.0 | 5.0 | 0.00 | 0.00 | 0.00 | 90 | 1011.4 |
| 20260509194006 | 80 | 306 | 3.0 | 5.0 | 0.00 | 0.00 | 0.00 | 89 | 1011.4 |
| 20260509194003 | 80 | 306 | 3.0 | 5.0 | 0.00 | 0.00 | 0.00 | 89 | 1011.4 |
| 20260509193506 | 80 | 306 | 3.0 | 5.0 | 0.00 | 0.00 | 0.00 | 89 | 1011.7 |
| 20260509193504 | 80 | 306 | 3.0 | 5.0 | 0.00 | 0.00 | 0.00 | 89 | 1011.7 |
| 20260509193006 | 81 | 306 | 3.0 | 5.0 | 0.00 | 0.00 | 0.00 | 89 | 1011.6 |
| 20260509192506 | 81 | 306 | 3.0 | 5.0 | 0.00 | 0.00 | 0.00 | 89 | 1011.5 |
| 20260509192504 | 81 | 306 | 3.0 | 5.0 | 0.00 | 0.00 | 0.00 | 89 | 1011.5 |
| 20260509192006 | 81 | 306 | 3.0 | 5.0 | 0.00 | 0.00 | 0.00 | 88 | 1011.8 |
| 20260509192003 | 81 | 306 | 3.0 | 5.0 | 0.00 | 0.00 | 0.00 | 88 | 1011.8 |
| 20260509191506 | 81 | 306 | 3.0 | 5.0 | 0.00 | 0.00 | 0.00 | 86 | 1011.8 |
| 20260509191504 | 81 | 306 | 3.0 | 5.0 | 0.00 | 0.00 | 0.00 | 86 | 1011.8 |
| 20260509191006 | 81 | 306 | 3.0 | 5.0 | 0.00 | 0.00 | 0.00 | 85 | 1011.8 |
| 20260509190506 | 81 | 306 | 3.0 | 5.0 | 0.00 | 0.00 | 0.00 | 85 | 1011.9 |
| 20260509190504 | 81 | 306 | 3.0 | 5.0 | 0.00 | 0.00 | 0.00 | 85 | 1011.9 |
| 20260509190006 | 82 | 306 | 3.0 | 5.0 | 0.00 | 0.00 | 0.00 | 84 | 1011.9 |
| 20260509185506 | 82 | 306 | 3.0 | 5.0 | 0.00 | 0.00 | 0.00 | 84 | 1011.8 |
| 20260509185504 | 82 | 306 | 3.0 | 5.0 | 0.00 | 0.00 | 0.00 | 84 | 1011.8 |
| 20260509185006 | 83 | 306 | 3.0 | 5.0 | 0.00 | 0.00 | 0.00 | 84 | 1011.8 |
| 20260509185004 | 83 | 306 | 3.0 | 5.0 | 0.00 | 0.00 | 0.00 | 84 | 1011.8 |
| 20260509184506 | 82 | 306 | 3.0 | 5.0 | 0.00 | 0.00 | 0.00 | 84 | 1011.7 |
| 20260509184503 | 82 | 306 | 3.0 | 5.0 | 0.00 | 0.00 | 0.00 | 84 | 1011.7 |
| 20260509184006 | 82 | 306 | 3.0 | 5.0 | 0.00 | 0.00 | 0.00 | 83 | 1011.9 |
| 20260509184004 | 82 | 306 | 3.0 | 5.0 | 0.00 | 0.00 | 0.00 | 83 | 1011.9 |
| 20260509183506 | 83 | 306 | 3.0 | 5.0 | 0.00 | 0.00 | 0.00 | 83 | 1011.8 |
| 20260509183504 | 83 | 306 | 3.0 | 5.0 | 0.00 | 0.00 | 0.00 | 83 | 1011.8 |
| 20260509183006 | 83 | 306 | 3.0 | 5.0 | 0.00 | 0.00 | 0.00 | 83 | 1012.0 |